HAWK-14B

导读 | 豆包AI

HAWK-14B(NORAD编号:68436)是一颗低轨商业遥感卫星,隶属于美国HAWK系列卫星星座,该星座主打高分辨率对地观测服务。 作为星座组网的卫星之一,HAWK-14B继承了系列卫星轻量化设计特点,体积小、成本低,可满足农业监测、灾害评估、地理测绘等多领域对地观测需求。其运行在近地太阳同步轨道,能定期对指定区域进行重访观测,为用户提供更新及时的遥感影像数据。目前该卫星仍在轨正常运行,承担常规观测任务,是全球商业遥感组网的微小卫星代表之一。 (全文约148字)

基本信息
目录编号:
68436
目录名称:
HAWK-14B
国际标识:
2026-067W
轨道中心:
EARTH
卫星名称:
HAWK-14B
卫星全名:
HAWK-14B
卫星状态:
在轨 (已飞行31 天)
发射日期:
2026-03-30 UTC
国别 :
美国 (US)
星等 :
--
轨道信息
数据来源 国际轨道数据
星历时间: 2026-04-30T03:57:52+0800
8小时前
查看轨道信息
半长轴: 6890.529km
偏心率: 0.0002224
轨道倾角: 97.452°
近地点辐角 167.935°
升交点赤经 79.003°
平近点角 192.193°
近地点: 510.859km
远地点: 513.925km
周期: 94.872分钟
每日圈数: 15.17833
详细信息
使用方式:
暂无
2D轨道图
3D轨道图
轨道高度分析图
轨道倾角分析图
轨道综合分析图
查看轨道综合分析图